Hourly Data Report for August 13, 2021

TORONTO CITY
ONTARIO
Current Station Operator: ECCC - MSC

43°40'00.000" N
79°24'00.000" W
112.50 m
6158355
71508
XTO

Download Data

Hourly Data (August 2021)
Hourly Data Report for August 13, 2021
TIME
LST
Temp Definition
°C
Dew Point Definition
°C
Rel Hum Definition
%
Precip. Amount Definition
mm

Wind Dir Definition
10's deg

Wind Spd Definition
km/h
Visibility Definition
km
Stn Press Definition
kPa
Hmdx Definition


Wind Chill Definition


Weather Definition


00:00 23.3 21.3 88 0.0       100.03 32   LegendNANA
01:00 22.9 20.9 89 0.0       100.02 31   LegendNANA
02:00 22.7 21.3 92 0.0       100.01 31   LegendNANA
03:00 22.6 21.3 92 0.0       99.99 31   LegendNANA
04:00 23.2 21.6 91 0.0       99.98 32   LegendNANA
05:00 22.8 21.3 91 0.0       100.00 31   LegendNANA
06:00 23.1 21.4 90 0.0       100.10 32   LegendNANA
07:00 24.0 21.4 85 0.0       100.13 33   LegendNANA
08:00 25.1 21.6 81 0.0       100.17 34   LegendNANA
09:00 26.6 22.4 78 0.0       100.16 36   LegendNANA
10:00 26.7 21.6 73 0.0       100.19 36   LegendNANA
11:00 27.4 21.8 72 0.0       100.19 37   LegendNANA
12:00 27.1 21.2 70 0.0       100.19 36   LegendNANA
13:00 27.7 21.2 68 0.0       100.19 36   LegendNANA
14:00 27.7 21.2 68 0.0       100.16 36   LegendNANA
15:00 28.0 21.6 68 0.0       100.08 37   LegendNANA
16:00 26.6 21.7 75 0.0       100.06 36   LegendNANA
17:00 26.6 21.3 73 0.0       100.09 35   LegendNANA
18:00 27.5 18.3 57 0.0       100.09 34   LegendNANA
19:00 25.2 13.7 49 0.0       100.20 28   LegendNANA
20:00 24.0 13.7 52 0.0       100.30 27   LegendNANA
21:00 22.9 10.9 47 0.0       100.37 25   LegendNANA
22:00 22.2 10.3 47 0.0       100.39     LegendNANA
23:00 22.1 9.8 46 0.0       100.41     LegendNANA

Notes on Data Quality.

Legend

  • E = Estimated
  • M = Missing
  • NA = Not Available*
  • [empty] = Indicates an unobserved value
Date modified: